Location: Ottawa
(45.4170°N, 75.7000°W)
Time: 23:39:13
(UTC-04:00)

ISS - Pass Details

Date: 18 May 2021
Orbit: 417 x 422 km, 51.6° (Epoch: 13 June)

Event Time Altitude Azimuth Distance (km) Brightness Sun altitude
Rises 23:05:21 0° 280° (W) 2,364 0.6 -19.8°
Reaches altitude 10° 23:07:38 10° 292° (WNW) 1,502 -0.3 -20.0°
Maximum altitude 23:10:36 28° 354° (N) 821 -1.6 -20.3°
Drops below altitude 10° 23:13:35 10° 56° (NE) 1,506 -0.9 -20.5°
Enters shadow 23:15:03 - 65° (ENE) 2,048 -0.3 -20.6°
